Time,TemperatureF,DewpointF,PressureIn,WindDirection,WindDirectionDegrees,WindSpeedMPH,WindSpeedGustMPH,Humidity,HourlyPrecipIn,Conditions,Clouds,dailyrainin,SoftwareType,DateUTC
2013-10-06 00:06:00,53.7,53.0,30.13,ENE,72,0.0,1.0,96,0.00,,,0.10,weatherlink.com 1.10,2013-10-06 04:06:00,
2013-10-06 00:21:00,53.6,53.0,30.14,ENE,72,0.0,0.0,96,0.00,,,0.10,weatherlink.com 1.10,2013-10-06 04:21:00,
2013-10-06 00:36:00,53.2,52.0,30.13,ENE,72,0.0,0.0,96,0.00,,,0.10,weatherlink.com 1.10,2013-10-06 04:36:00,
2013-10-06 00:51:00,53.2,52.0,30.14,ENE,72,0.0,0.0,96,0.00,,,0.10,weatherlink.com 1.10,2013-10-06 04:51:00,
2013-10-06 01:06:00,53.0,52.0,30.14,ENE,72,0.0,0.0,96,0.00,,,0.10,weatherlink.com 1.10,2013-10-06 05:06:00,
2013-10-06 01:21:00,53.1,52.0,30.14,ENE,72,0.0,0.0,96,0.00,,,0.10,weatherlink.com 1.10,2013-10-06 05:21:00,
2013-10-06 01:36:00,53.0,52.0,30.14,ENE,72,0.0,0.0,96,0.00,,,0.10,weatherlink.com 1.10,2013-10-06 05:36:00,
2013-10-06 01:51:00,52.6,52.0,30.14,ENE,72,0.0,0.0,96,0.00,,,0.10,weatherlink.com 1.10,2013-10-06 05:51:00,
2013-10-06 02:06:00,52.6,52.0,30.13,ENE,72,0.0,0.0,96,0.00,,,0.10,weatherlink.com 1.10,2013-10-06 06:06:00,
2013-10-06 02:21:00,52.4,51.0,30.14,ENE,72,0.0,0.0,96,0.00,,,0.10,weatherlink.com 1.10,2013-10-06 06:21:00,
2013-10-06 02:36:00,52.3,51.0,30.13,ENE,72,0.0,0.0,96,0.00,,,0.10,weatherlink.com 1.10,2013-10-06 06:36:00,
2013-10-06 02:51:00,52.2,51.0,30.13,ENE,72,0.0,0.0,96,0.00,,,0.10,weatherlink.com 1.10,2013-10-06 06:51:00,
2013-10-06 03:06:00,52.1,51.0,30.13,ENE,72,0.0,0.0,96,0.00,,,0.10,weatherlink.com 1.10,2013-10-06 07:06:00,
2013-10-06 03:21:00,52.0,51.0,30.13,ENE,72,0.0,0.0,97,0.00,,,0.10,weatherlink.com 1.10,2013-10-06 07:21:00,
2013-10-06 03:36:00,51.9,51.0,30.13,ENE,72,0.0,0.0,97,0.00,,,0.10,weatherlink.com 1.10,2013-10-06 07:36:00,
2013-10-06 03:51:00,52.1,51.0,30.13,ENE,72,0.0,0.0,97,0.00,,,0.00,weatherlink.com 1.10,2013-10-06 07:51:00,
2013-10-06 04:06:00,52.1,51.0,30.13,ENE,72,0.0,0.0,97,0.00,,,0.00,weatherlink.com 1.10,2013-10-06 08:06:00,
2013-10-06 04:21:00,53.3,53.0,30.13,ENE,72,0.0,1.0,97,0.00,,,0.00,weatherlink.com 1.10,2013-10-06 08:21:00,
2013-10-06 04:36:00,53.7,53.0,30.13,ENE,72,0.0,0.0,97,0.00,,,0.00,weatherlink.com 1.10,2013-10-06 08:36:00,
2013-10-06 04:51:00,54.2,53.0,30.13,ENE,72,0.0,0.0,97,0.00,,,0.00,weatherlink.com 1.10,2013-10-06 08:51:00,
2013-10-06 05:06:00,54.5,54.0,30.14,ENE,72,0.0,0.0,97,0.00,,,0.00,weatherlink.com 1.10,2013-10-06 09:06:00,
2013-10-06 05:21:00,55.0,54.0,30.14,ENE,72,0.0,1.0,97,0.00,,,0.00,weatherlink.com 1.10,2013-10-06 09:21:00,
2013-10-06 05:36:00,56.3,56.0,30.14,ENE,72,0.0,1.0,97,0.00,,,0.00,weatherlink.com 1.10,2013-10-06 09:36:00,
2013-10-06 05:51:00,56.9,56.0,30.14,ENE,72,0.0,1.0,97,0.00,,,0.00,weatherlink.com 1.10,2013-10-06 09:51:00,
2013-10-06 06:06:00,57.4,57.0,30.14,ENE,72,0.0,0.0,97,0.00,,,0.00,weatherlink.com 1.10,2013-10-06 10:06:00,
2013-10-06 06:21:00,57.8,57.0,30.14,ENE,72,0.0,0.0,97,0.00,,,0.00,weatherlink.com 1.10,2013-10-06 10:21:00,
2013-10-06 06:36:00,58.0,57.0,30.16,ENE,72,0.0,1.0,97,0.00,,,0.00,weatherlink.com 1.10,2013-10-06 10:36:00,
2013-10-06 06:51:00,58.3,58.0,30.16,ENE,72,0.0,0.0,98,0.00,,,0.00,weatherlink.com 1.10,2013-10-06 10:51:00,
2013-10-06 07:07:00,58.5,58.0,30.16,ENE,72,0.0,1.0,98,0.00,,,0.00,weatherlink.com 1.10,2013-10-06 11:07:00,
2013-10-06 07:22:00,58.7,58.0,30.16,NE,49,0.0,2.0,97,0.00,,,0.00,weatherlink.com 1.10,2013-10-06 11:22:00,
2013-10-06 07:37:00,59.0,59.0,30.17,NE,49,0.0,0.0,98,0.00,,,0.00,weatherlink.com 1.10,2013-10-06 11:37:00,
2013-10-06 07:52:00,59.4,59.0,30.17,NE,49,0.0,1.0,97,0.00,,,0.00,weatherlink.com 1.10,2013-10-06 11:52:00,
2013-10-06 08:07:00,59.8,59.0,30.18,NE,49,0.0,1.0,98,0.00,,,0.00,weatherlink.com 1.10,2013-10-06 12:07:00,
2013-10-06 08:22:00,60.2,60.0,30.18,NE,49,0.0,1.0,98,0.00,,,0.00,weatherlink.com 1.10,2013-10-06 12:22:00,
2013-10-06 08:37:00,60.6,60.0,30.18,ENE,65,0.0,1.0,97,0.00,,,0.00,weatherlink.com 1.10,2013-10-06 12:37:00,
2013-10-06 08:52:00,60.7,60.0,30.18,East,94,1.0,2.0,97,0.00,,,0.00,weatherlink.com 1.10,2013-10-06 12:52:00,
2013-10-06 09:07:00,60.8,60.0,30.19,ENE,75,0.0,2.0,97,0.00,,,0.00,weatherlink.com 1.10,2013-10-06 13:07:00,
2013-10-06 09:22:00,61.0,60.0,30.19,East,79,1.0,5.0,96,0.00,,,0.00,weatherlink.com 1.10,2013-10-06 13:22:00,
2013-10-06 09:37:00,61.4,60.0,30.20,East,91,1.0,2.0,96,0.00,,,0.00,weatherlink.com 1.10,2013-10-06 13:37:00,
2013-10-06 09:52:00,61.6,60.0,30.20,ENE,72,1.0,2.0,94,0.00,,,0.00,weatherlink.com 1.10,2013-10-06 13:52:00,
2013-10-06 10:07:00,62.2,59.0,30.20,East,95,0.0,2.0,88,0.00,,,0.00,weatherlink.com 1.10,2013-10-06 14:07:00,
2013-10-06 10:22:00,62.5,57.0,30.20,ESE,117,0.0,4.0,83,0.00,,,0.00,weatherlink.com 1.10,2013-10-06 14:22:00,
2013-10-06 10:37:00,62.8,57.0,30.20,SE,127,1.0,2.0,80,0.00,,,0.00,weatherlink.com 1.10,2013-10-06 14:37:00,
2013-10-06 10:52:00,64.3,57.0,30.20,SE,136,0.0,3.0,78,0.00,,,0.00,weatherlink.com 1.10,2013-10-06 14:52:00,
2013-10-06 11:07:00,64.8,57.0,30.20,ESE,105,1.0,4.0,77,0.00,,,0.00,weatherlink.com 1.10,2013-10-06 15:07:00,
2013-10-06 11:22:00,64.7,57.0,30.20,East,93,1.0,2.0,77,0.00,,,0.00,weatherlink.com 1.10,2013-10-06 15:22:00,
2013-10-06 11:37:00,65.6,59.0,30.20,SE,140,2.0,3.0,78,0.00,,,0.00,weatherlink.com 1.10,2013-10-06 15:37:00,
2013-10-06 11:53:00,65.6,58.0,30.21,SE,124,0.0,2.0,77,0.00,,,0.00,weatherlink.com 1.10,2013-10-06 15:53:00,
2013-10-06 12:08:00,65.3,59.0,30.21,SE,138,1.0,2.0,79,0.00,,,0.00,weatherlink.com 1.10,2013-10-06 16:08:00,
2013-10-06 12:22:00,65.2,59.0,30.20,South,187,0.0,4.0,79,0.00,,,0.00,weatherlink.com 1.10,2013-10-06 16:22:00,
2013-10-06 12:38:00,65.6,58.0,30.20,SSE,147,0.0,4.0,77,0.00,,,0.00,weatherlink.com 1.10,2013-10-06 16:38:00,
2013-10-06 12:52:00,65.6,58.0,30.20,SE,146,2.0,3.0,76,0.00,,,0.00,weatherlink.com 1.10,2013-10-06 16:52:00,
2013-10-06 13:08:00,65.3,57.0,30.19,SE,131,0.0,2.0,75,0.00,,,0.00,weatherlink.com 1.10,2013-10-06 17:08:00,
2013-10-06 13:24:00,64.2,56.0,30.19,ESE,119,0.0,3.0,75,0.00,,,0.00,weatherlink.com 1.10,2013-10-06 17:24:00,
2013-10-06 13:38:00,63.5,54.0,30.19,ESE,117,1.0,3.0,72,0.00,,,0.00,weatherlink.com 1.10,2013-10-06 17:38:00,
2013-10-06 13:54:00,63.0,55.0,30.18,ESE,110,1.0,2.0,76,0.00,,,0.00,weatherlink.com 1.10,2013-10-06 17:54:00,
2013-10-06 14:08:00,63.2,56.0,30.18,ESE,108,2.0,3.0,77,0.00,,,0.00,weatherlink.com 1.10,2013-10-06 18:08:00,
2013-10-06 14:24:00,63.3,55.0,30.18,South,177,2.0,4.0,74,0.00,,,0.00,weatherlink.com 1.10,2013-10-06 18:24:00,
2013-10-06 14:38:00,63.2,54.0,30.18,ESE,122,3.0,7.0,71,0.00,,,0.00,weatherlink.com 1.10,2013-10-06 18:38:00,
2013-10-06 14:54:00,63.4,52.0,30.18,ESE,120,1.0,4.0,66,0.00,,,0.00,weatherlink.com 1.10,2013-10-06 18:54:00,
2013-10-06 15:09:00,63.2,52.0,30.18,ESE,114,0.0,3.0,68,0.00,,,0.00,weatherlink.com 1.10,2013-10-06 19:09:00,
2013-10-06 15:23:00,63.3,56.0,30.18,ESE,108,1.0,3.0,76,0.00,,,0.00,weatherlink.com 1.10,2013-10-06 19:23:00,
2013-10-06 15:39:00,63.1,56.0,30.18,East,79,1.0,3.0,77,0.00,,,0.00,weatherlink.com 1.10,2013-10-06 19:39:00,
2013-10-06 15:55:00,63.1,56.0,30.18,SE,131,1.0,4.0,77,0.00,,,0.00,weatherlink.com 1.10,2013-10-06 19:55:00,
2013-10-06 16:09:00,63.3,56.0,30.18,ESE,105,2.0,4.0,77,0.00,,,0.00,weatherlink.com 1.10,2013-10-06 20:09:00,
2013-10-06 16:25:00,63.4,56.0,30.17,ESE,103,1.0,5.0,76,0.00,,,0.00,weatherlink.com 1.10,2013-10-06 20:25:00,
2013-10-06 16:39:00,63.6,56.0,30.17,ESE,112,1.0,5.0,77,0.00,,,0.00,weatherlink.com 1.10,2013-10-06 20:39:00,
2013-10-06 16:55:00,62.9,56.0,30.17,SE,127,0.0,4.0,79,0.00,,,0.00,weatherlink.com 1.10,2013-10-06 20:55:00,
2013-10-06 17:09:00,62.3,56.0,30.17,East,96,1.0,4.0,79,0.00,,,0.00,weatherlink.com 1.10,2013-10-06 21:09:00,
2013-10-06 17:25:00,61.9,56.0,30.18,East,101,1.0,3.0,80,0.00,,,0.00,weatherlink.com 1.10,2013-10-06 21:25:00,
2013-10-06 17:39:00,61.7,56.0,30.18,SE,146,1.0,2.0,81,0.00,,,0.00,weatherlink.com 1.10,2013-10-06 21:39:00,
2013-10-06 17:55:00,61.4,56.0,30.18,East,91,0.0,2.0,82,0.00,,,0.00,weatherlink.com 1.10,2013-10-06 21:55:00,
2013-10-06 18:10:00,61.2,56.0,30.18,East,83,0.0,3.0,83,0.00,,,0.00,weatherlink.com 1.10,2013-10-06 22:10:00,
2013-10-06 18:24:00,61.1,56.0,30.18,NE,56,2.0,2.0,83,0.00,,,0.00,weatherlink.com 1.10,2013-10-06 22:24:00,
2013-10-06 18:39:00,61.1,56.0,30.18,ESE,116,0.0,5.0,84,0.00,,,0.00,weatherlink.com 1.10,2013-10-06 22:39:00,
2013-10-06 18:55:00,61.1,56.0,30.18,ESE,115,0.0,1.0,84,0.00,,,0.00,weatherlink.com 1.10,2013-10-06 22:55:00,
2013-10-06 19:09:00,61.2,57.0,30.18,SE,132,0.0,2.0,85,0.00,,,0.00,weatherlink.com 1.10,2013-10-06 23:09:00,
2013-10-06 19:25:00,61.4,57.0,30.18,East,101,1.0,2.0,85,0.00,,,0.00,weatherlink.com 1.10,2013-10-06 23:25:00,
2013-10-06 19:39:00,61.4,57.0,30.18,SE,128,1.0,3.0,86,0.00,,,0.00,weatherlink.com 1.10,2013-10-06 23:39:00,
2013-10-06 19:55:00,61.5,58.0,30.18,East,100,1.0,2.0,87,0.00,,,0.00,weatherlink.com 1.10,2013-10-06 23:55:00,
2013-10-06 20:11:00,61.6,58.0,30.18,ESE,117,0.0,2.0,88,0.00,,,0.00,weatherlink.com 1.10,2013-10-07 00:11:00,
2013-10-06 20:25:00,61.7,58.0,30.18,SE,131,0.0,2.0,88,0.00,,,0.00,weatherlink.com 1.10,2013-10-07 00:25:00,
2013-10-06 20:41:00,61.8,59.0,30.18,SE,128,1.0,3.0,89,0.00,,,0.00,weatherlink.com 1.10,2013-10-07 00:41:00,
2013-10-06 20:55:00,61.7,59.0,30.17,NNE,19,0.0,3.0,89,0.00,,,0.00,weatherlink.com 1.10,2013-10-07 00:55:00,
2013-10-06 21:11:00,61.6,59.0,30.17,SE,146,0.0,3.0,90,0.00,,,0.00,weatherlink.com 1.10,2013-10-07 01:11:00,
2013-10-06 21:25:00,61.7,59.0,30.17,South,173,0.0,2.0,91,0.00,,,0.00,weatherlink.com 1.10,2013-10-07 01:25:00,
2013-10-06 21:41:00,61.6,59.0,30.17,South,172,0.0,1.0,91,0.00,,,0.00,weatherlink.com 1.10,2013-10-07 01:41:00,
2013-10-06 21:55:00,61.6,59.0,30.17,East,98,1.0,2.0,92,0.00,,,0.00,weatherlink.com 1.10,2013-10-07 01:55:00,
2013-10-06 22:11:00,61.8,60.0,30.16,North,360,0.0,2.0,92,0.00,,,0.00,weatherlink.com 1.10,2013-10-07 02:11:00,
2013-10-06 22:25:00,62.0,60.0,30.16,North,1,0.0,1.0,93,0.00,,,0.00,weatherlink.com 1.10,2013-10-07 02:25:00,
2013-10-06 22:41:00,62.4,60.0,30.16,SSW,195,0.0,3.0,93,0.00,,,0.00,weatherlink.com 1.10,2013-10-07 02:41:00,
2013-10-06 22:55:00,62.7,61.0,30.15,SE,139,2.0,4.0,93,0.00,,,0.00,weatherlink.com 1.10,2013-10-07 02:55:00,
2013-10-06 23:11:00,63.0,61.0,30.15,ESE,120,0.0,4.0,92,0.00,,,0.00,weatherlink.com 1.10,2013-10-07 03:11:00,
2013-10-06 23:25:00,63.2,61.0,30.14,SSW,197,1.0,2.0,93,0.00,,,0.00,weatherlink.com 1.10,2013-10-07 03:25:00,
2013-10-06 23:41:00,63.4,61.0,30.14,SE,124,0.0,4.0,93,0.00,,,0.00,weatherlink.com 1.10,2013-10-07 03:41:00,
2013-10-06 23:57:00,63.8,62.0,30.14,SSE,153,0.0,3.0,93,0.00,,,0.00,weatherlink.com 1.10,2013-10-07 03:57:00,